Location: B?jaj?g
(11.7167°N, 92.6667°E)
Time: 07:05:51
(UTC+00:00)

CZ-4B R/B - Pass Details

Date: 18 September 2020
Orbit: 498 x 645 km, 97.8° (Epoch: 19 October)

Event Time Altitude Azimuth Distance (km) Brightness Sun altitude
Rises 22:38:09 0° 1° (N) 2,910 7.6 -15.6°
Reaches altitude 10° 22:40:24 10° 355° (N) 2,016 6.7 -15.1°
Maximum altitude 22:44:36 44° 283° (WNW) 883 4.4 -14.0°
Drops below altitude 10° 22:48:51 10° 211° (SSW) 2,037 6.4 -13.0°
Sets 22:51:08 0° 204° (SSW) 2,943 7.3 -12.4°
